Hourly Data Report for October 02, 2017

All times are specified in Local Standard Time (LST). Add 1 hour to adjust for Daylight Saving Time where and when it is observed.

ATIKOKAN (AUT)
ONTARIO

48°45'40.000" N
91°37'41.000" W
389.30 m
6020LPQ
71747
WCH

Download Data

Hourly Data (October 2017)
Hourly Data Report for October 2, 2017
Temp Definition
°C
Dew Point Temp Definition
°C
Rel Hum Definition
%
Wind Dir Definition
10's deg

Wind Spd Definition
km/h
Visibility Definition
km
Stn Press Definition
kPa
Hmdx Definition


Wind Chill Definition


Weather Definition


TIME
00:00 15.6 7.9 60 17 14   96.69     LegendNANA
01:00 15.2 7.8 61 17 13   96.62     LegendNANA
02:00 14.6 7.9 64 16 11   96.61     LegendNANA
03:00 13.8 7.9 67 14 6   96.63     LegendNANA
04:00 14.0 7.4 65 15 9   96.61     LegendNANA
05:00 14.2 7.4 64 15 12   96.60     LegendNANA
06:00 13.2 7.9 70 16 14   96.63     LegendNANA
07:00 11.2 9.3 88 13 7   96.59     LegendNANA
08:00 11.2 9.6 90 13 10   96.62     LegendNANA
09:00 11.6 10.3 91 14 8   96.56     LegendNANA
10:00 12.2 10.6 90 17 10   96.54     LegendNANA
11:00 12.8 11.1 89 19 13   96.59     LegendNANA
12:00 13.3 11.4 88 18 14   96.58     LegendNANA
13:00 13.6 11.5 87 18 13   96.61     LegendNANA
14:00 13.9 11.6 86 20 10   96.67     LegendNANA
15:00 14.4 11.9 85 19 9   96.67     LegendNANA
16:00 14.4 12.0 86 19 8   96.70     LegendNANA
17:00 14.5 12.1 85 18 6   96.75     LegendNANA
18:00 14.5 12.3 87 18 6   96.81     LegendNANA
19:00 14.6 12.4 87 19 6   96.85     LegendNANA
20:00 14.4 12.3 88 24 2   96.84     LegendNANA
21:00 13.6 12.2 91   0   96.88     LegendNANA
22:00 13.6 12.2 91 0 1   96.84     LegendNANA
23:00 13.2 12.0 92 8 1   96.83     LegendNANA

Notes on Data Quality.

Legend

  • E = Estimated
  • M = Missing
  • NA = Not Available
  • ‡ = Partner data that is not subject to review by the National Climate Archives
Date modified: